Simultaneous Nadir Overpasses (SNOs) Predictions

Prediction of SNOs between LANDSAT-8 and METOP-B Satellite Orbit:

Table of predicted SNOs for the next 14.0 days since TLE Epoch: 8/24/2024
Index Date (LANDSAT-8) Time (LANDSAT-8) Lat,Lon (LANDSAT-8) SZA (LANDSAT-8 ) Date (METOP-B) Time (METOP-B) Lat,Lon (METOP-B) SZA (METOP-B ) Distance(km) Time Diff (sec)
1 08/24/2024 22:14:44 -81.39, 71.05 106.82 08/24/2024 22:14:23 -81.39, 71.11 106.82 1.12 21
2 08/24/2024 23:04:10 81.40,-121.18 73.22 08/24/2024 23:05:03 81.39,-121.23 73.23 0.91 53
3 08/27/2024 17:48:59 -81.38, 137.26 105.85 08/27/2024 17:48:47 -81.39, 137.44 105.83 3.05 12
4 08/27/2024 18:38:25 81.38, -55.01 74.18 08/27/2024 18:39:27 81.39, -54.92 74.22 1.71 62
5 08/30/2024 12:34:12 80.72, 26.10 73.66 08/30/2024 12:32:59 81.05, 24.82 73.78 42.65 73
6 08/30/2024 13:23:11 -81.39,-156.16 104.81 08/30/2024 13:23:09 -81.39,-155.99 104.79 2.86 2
7 08/30/2024 14:12:37 81.39, 11.53 75.21 08/30/2024 14:13:49 81.39, 11.63 75.26 1.76 72
8 09/02/2024 08:07:56 81.39, 102.78 76.24 09/02/2024 08:06:52 81.39, 102.75 76.20 0.99 64
9 09/02/2024 08:57:23 -81.39, -89.59 103.76 09/02/2024 08:57:32 -81.39, -89.56 103.75 0.57 9
10 09/05/2024 03:42:08 81.38, 168.92 77.25 09/05/2024 03:41:15 81.38, 169.01 77.24 1.70 53



Historial Predications of SNOs between LANDSAT-8 and METOP-B
